SL-14 DEB

Satellite information

Favourite Embed

Satellite Type and Status

DEBRISIN ORBIT

Key statistics

Satellite SL-14 DEB at a glance.

Uptime

13997

Days in orbit

Revolutions

≈ 14.3

Per day

Orbit

LEO

Low Earth Orbit

Inclination

82.3

Latest

Satellite identification and parameters

Extended collection of information and parameters for SL-14 DEB.

Object identification

Identified? True

Debris? True

Object name: SL-14 DEB

International designator: 1987-068AE

Object number (NORAD): 25203

Object ID (CCSDS): 25203

Country: COMMONWEALTH OF INDEPENDENT STATES (CIS)

Current information (Y/N): Y

RCS size: SMALL

Orbital parameters

Period: 100.966 minutes

Inclination: 82.2668 deg

SMA: 7182.541 km

Apoapsis: 869.906 km

Periapsis: 738.905 km

RAAN: 26.4133 deg

Eccentricy: 0.00911936

Argument of periapsis: 202.9031 deg

Mean anomaly: 156.8075 deg

Mean motion: 14.26217089 rev/day

Mean motion (dot): 0.00002081 rev/day2

B* drag term: 0.00082574393 1/REarth

Two-line elements (TLE)

Creation date: Dec. 12, 2025, 10:14 a.m.

Reference frame: TEME

Reference center: EARTH

Epoch: Dec. 12, 2025, 4:13 a.m. UTC

TLE line 0: 0 SL-14 DEB

TLE line 1: 1 25203U 87068AE 25346.17622460 .00002081 00000-0 82574-3 0 9999

TLE line 2: 2 25203 82.2668 26.4133 0091194 202.9031 156.8075 14.26217089438441

Live tracking on map

Real-time ground track for satellite SL-14 DEB.

In-orbit conjunctions

A list of the most updated potential collisions computed for object SL-14 DEB.

Target Orbit TCA Probability of collision Miss distance Type
CZ-6A DEB SSO 2025-08-21 14:35:25 0.0001227613 144.0 (m) DEBRIS
FENGYUN 1C DEB MEO 2025-04-06 23:57:58 0.0001649726 17.0 (m) DEBRIS
FENGYUN 1C DEB SSO 2025-03-11 06:00:34 0.0001028089 65.0 (m) DEBRIS
IRIDIUM 33 DEB LEO 2024-11-12 06:21:22 0.0001910355 975.0 (m) DEBRIS
FENGYUN 1C DEB SSO 2024-09-22 23:05:13 0.0001346157 90.0 (m) DEBRIS

Associated space launch

Second generation soviet meteorological satellite

SL-14 DEB was lifted into orbit during the mission ‘Tsiklon-3 | Meteor-2 16’, on board a Tsiklon-3 space rocket.

The launch took place on Aug. 18, 1987, 2:27 a.m. from 32/1.

For more information about the launch, click the button.

Launch to space Tsiklon-3 | Meteor-2 16
Tsiklon-3 | Meteor-2 16

Agency: N/A

Status: Launch Successful

Launch date: Aug. 18, 1987, 2:27 a.m. UTC

Rocket: Tsiklon-3

Launch pad: 32/1

Location: Plesetsk Cosmodrome, Russian Federation

...

Latest news about this satellite

There are no fresh news available about this satellite. Check back as we update our databases every day.


Newsletter sign-up

Weekly statistics, charts and insights to help you stay on top of the space industry.